{"data":{"norad_id":55420,"epoch":"2026-05-24T21:34:15.527712Z","epoch_age_seconds":87789,"freshness":"FRESH","line1":"1 55420U 23014AF  26144.89879083 -.00000063  00000+0  24982-5 0  9994","line2":"2 55420  69.9992 212.3267 0003579 270.8167  89.2582 14.98331094183963","mean_motion":14.98331094,"eccentricity":0.0003579,"inclination_deg":69.9992,"raan_deg":212.3267,"arg_perigee_deg":270.8167,"mean_anomaly_deg":89.2582,"bstar":2.4982e-6,"rev_number":18396,"period_min":96.106928953581,"perigee_km":569.56503501686,"apogee_km":574.53998066658,"semimajor_km":6950.1895078417,"source":"CELESTRAK","updated_at":"2026-05-25T13:38:17.798089Z"}}